ERS 2 DEB, 35393

Orbit data source: Space-Track

ERS 2 DEB, 35393 is space debris in SSO originally from a launch on Fri, 21 Apr 1995 UTC launched from the French Guiana (FRGUI). Debris objects in space refer to the collection of defunct objects orbiting the Earth. Examples of debris include non-operational satellites, rocket bodies, and fragments generated from explosions, collisions, or faulty payload assembly.

Loading next visibility...
Identifier
35393, 1995-021G
Orbit
SSO
Country
Flag of ESAESA
Related business
Manufacturer
Unknown
Mission
Spacecraft
Bus & Motor
Unknown
Mass
Unknown
Launch date (UTC)
1995-04-21 (31 years ago)
Launch vehicle
Unknown
Launch site
French Guiana (FRGUI)
Object type
Payload
Rocket body
Debris
Shape & HBR
Unknown shape, 0.1 m
Radar Cross Section
Medium (>0.1 m² and <1 m²)

Expand to show TLE details & history
Last TLE update: 2 days ago

TLE from 2 days ago
0 ERS 2 DEB
1 35393U 95021G   26171.43755523  .00001968  00000-0  45479-3 0  9997
2 35393  98.5096 151.3765 0002671 301.7739 211.3016 14.56347034202685
Epoch: 2026-06-20T10:30Z
TLE epoch observation values (Epoch: 2026-06-20T10:30:04.771Z)
Latitude
26.65809°
Longitude
-90.5109°
Altitude
709.9 km
Speed
7.502 km/s
True Right ascension
22h 22m 38s
True Declination
26° 31' 10"
Sunlit
Object was in daylight at epoch
Visualization orbit readout
Latitude
Unknown
Longitude
Unknown
Altitude
Unknown
Speed
Unknown
Apparent Right ascension
Unknown
Apparent Declination
Unknown
Sunlit
N/A
Visualization observer readout
Local Sidereal Time
23:08:24
Azimuth
Unknown
Elevation
Unknown
Doppler factor
Unknown
Orbital elements
Apogee altitude
703.985 km
Perigee altitude
700.203 km
Semi-major axis
7,080.231 km
Eccentricity
0.00027
Inclination
98.5096°
RAAN
151.3765°
Arg. of periapsis
301.7739°
True anomaly
211.2857°
Mean anomaly
211.3016°
Eccentric anomaly
211.29365°
Mean motion
3.64311 °/min
Orbital period
98.82 mins
BSTAR
0.00045479
Loading maneuver chart data...
Computing Atmospheric mass density...
Loading historical data...
Loading historical data...
Loading historical data...
Loading historical data...
Loading historical data...
Loading historical data...
Loading historical data...

Documentation

Showing up to 5 results
|